Time,TemperatureF,DewpointF,PressureIn,WindDirection,WindDirectionDegrees,WindSpeedMPH,WindSpeedGustMPH,Humidity,HourlyPrecipIn,Conditions,Clouds,dailyrainin,SoftwareType,DateUTC
2013-09-13 00:03:00,64.3,62.0,29.94,SSE,153,0.0,0.0,93,0.02,,,0.00,weatherlink.com 1.10,2013-09-13 04:03:00,
2013-09-13 00:18:00,64.4,61.0,29.94,West,267,0.0,0.0,89,0.01,,,0.00,weatherlink.com 1.10,2013-09-13 04:18:00,
2013-09-13 00:33:00,64.5,61.0,29.94,SW,227,0.0,0.0,89,0.00,,,0.00,weatherlink.com 1.10,2013-09-13 04:33:00,
2013-09-13 00:48:00,64.7,62.0,29.93,SE,145,0.0,0.0,90,0.00,,,0.00,weatherlink.com 1.10,2013-09-13 04:48:00,
2013-09-13 01:03:00,65.1,62.0,29.93,WNW,286,0.0,0.0,90,0.00,,,0.00,weatherlink.com 1.10,2013-09-13 05:03:00,
2013-09-13 01:18:00,65.6,63.0,29.93,ESE,118,0.0,0.0,91,0.00,,,0.00,weatherlink.com 1.10,2013-09-13 05:18:00,
2013-09-13 01:33:00,65.1,63.0,29.93,SSE,153,0.0,0.0,92,0.00,,,0.00,weatherlink.com 1.10,2013-09-13 05:33:00,
2013-09-13 01:48:00,65.0,63.0,29.93,South,175,0.0,0.0,92,0.00,,,0.00,weatherlink.com 1.10,2013-09-13 05:48:00,
2013-09-13 02:03:00,64.8,63.0,29.93,SSE,161,0.0,0.0,93,0.00,,,0.00,weatherlink.com 1.10,2013-09-13 06:03:00,
2013-09-13 02:18:00,64.5,63.0,29.92,WSW,248,0.0,0.0,94,0.00,,,0.00,weatherlink.com 1.10,2013-09-13 06:18:00,
2013-09-13 02:33:00,64.5,63.0,29.91,West,272,0.0,0.0,94,0.00,,,0.00,weatherlink.com 1.10,2013-09-13 06:33:00,
2013-09-13 02:48:00,64.9,63.0,29.90,SSW,209,0.0,0.0,93,0.00,,,0.00,weatherlink.com 1.10,2013-09-13 06:48:00,
2013-09-13 03:03:00,64.8,63.0,29.90,SE,143,0.0,0.0,93,0.00,,,0.00,weatherlink.com 1.10,2013-09-13 07:03:00,
2013-09-13 03:18:00,64.4,63.0,29.90,SE,140,0.0,0.0,94,0.00,,,0.00,weatherlink.com 1.10,2013-09-13 07:18:00,
2013-09-13 03:33:00,64.5,63.0,29.89,SE,144,0.0,0.0,94,0.00,,,0.00,weatherlink.com 1.10,2013-09-13 07:33:00,
2013-09-13 03:48:00,64.6,63.0,29.89,SE,140,0.0,0.0,94,0.00,,,0.00,weatherlink.com 1.10,2013-09-13 07:48:00,
2013-09-13 04:03:00,64.5,63.0,29.89,SE,146,0.0,0.0,94,0.00,,,0.00,weatherlink.com 1.10,2013-09-13 08:03:00,
2013-09-13 04:18:00,64.7,63.0,29.89,SE,143,0.0,0.0,93,0.00,,,0.00,weatherlink.com 1.10,2013-09-13 08:18:00,
2013-09-13 04:33:00,65.1,63.0,29.89,SSE,155,0.0,0.0,92,0.00,,,0.00,weatherlink.com 1.10,2013-09-13 08:33:00,
2013-09-13 04:48:00,65.4,63.0,29.89,SE,133,0.0,0.0,91,0.00,,,0.00,weatherlink.com 1.10,2013-09-13 08:48:00,
2013-09-13 05:03:00,65.3,62.0,29.89,SW,234,0.0,0.0,90,0.00,,,0.00,weatherlink.com 1.10,2013-09-13 09:03:00,
2013-09-13 05:18:00,65.6,62.0,29.90,West,259,3.0,9.0,89,0.00,,,0.00,weatherlink.com 1.10,2013-09-13 09:18:00,
2013-09-13 05:33:00,65.8,62.0,29.90,West,261,5.0,8.0,87,0.00,,,0.00,weatherlink.com 1.10,2013-09-13 09:33:00,
2013-09-13 05:48:00,65.7,62.0,29.90,West,269,0.0,7.0,87,0.00,,,0.00,weatherlink.com 1.10,2013-09-13 09:48:00,
2013-09-13 06:03:00,65.6,62.0,29.90,West,273,0.0,8.0,87,0.00,,,0.00,weatherlink.com 1.10,2013-09-13 10:03:00,
2013-09-13 06:18:00,65.2,61.0,29.90,WSW,256,0.0,6.0,86,0.00,,,0.00,weatherlink.com 1.10,2013-09-13 10:18:00,
2013-09-13 06:33:00,65.1,61.0,29.91,WSW,257,4.0,8.0,86,0.00,,,0.00,weatherlink.com 1.10,2013-09-13 10:33:00,
2013-09-13 06:48:00,65.1,61.0,29.91,West,265,0.0,2.0,86,0.00,,,0.00,weatherlink.com 1.10,2013-09-13 10:48:00,
2013-09-13 07:03:00,64.7,61.0,29.91,WSW,250,0.0,0.0,86,0.00,,,0.00,weatherlink.com 1.10,2013-09-13 11:03:00,
2013-09-13 07:18:00,64.8,61.0,29.91,SW,236,0.0,0.0,86,0.00,,,0.00,weatherlink.com 1.10,2013-09-13 11:18:00,
2013-09-13 07:33:00,64.6,60.0,29.91,West,269,3.0,8.0,86,0.00,,,0.00,weatherlink.com 1.10,2013-09-13 11:33:00,
2013-09-13 07:49:00,64.7,60.0,29.92,West,261,2.0,8.0,84,0.00,,,0.00,weatherlink.com 1.10,2013-09-13 11:49:00,
2013-09-13 08:04:00,64.7,60.0,29.92,WSW,252,0.0,6.0,84,0.00,,,0.00,weatherlink.com 1.10,2013-09-13 12:04:00,
2013-09-13 08:19:00,64.7,60.0,29.92,WSW,256,0.0,8.0,85,0.00,,,0.00,weatherlink.com 1.10,2013-09-13 12:19:00,
2013-09-13 08:34:00,65.0,60.0,29.93,SW,229,3.0,8.0,85,0.00,,,0.00,weatherlink.com 1.10,2013-09-13 12:34:00,
2013-09-13 08:49:00,65.2,59.0,29.92,WSW,246,0.0,10.0,81,0.00,,,0.00,weatherlink.com 1.10,2013-09-13 12:49:00,
2013-09-13 09:04:00,65.8,60.0,29.92,WSW,252,0.0,10.0,82,0.00,,,0.00,weatherlink.com 1.10,2013-09-13 13:04:00,
2013-09-13 09:19:00,66.1,60.0,29.92,West,267,1.0,11.0,81,0.00,,,0.00,weatherlink.com 1.10,2013-09-13 13:19:00,
2013-09-13 09:34:00,65.9,60.0,29.92,WNW,288,0.0,6.0,82,0.00,,,0.00,weatherlink.com 1.10,2013-09-13 13:34:00,
2013-09-13 09:49:00,66.4,60.0,29.92,SW,223,0.0,9.0,80,0.00,,,0.00,weatherlink.com 1.10,2013-09-13 13:49:00,
2013-09-13 10:04:00,66.8,62.0,29.92,West,261,0.0,5.0,83,0.00,,,0.00,weatherlink.com 1.10,2013-09-13 14:04:00,
2013-09-13 10:19:00,67.3,61.0,29.93,West,267,1.0,7.0,81,0.00,,,0.00,weatherlink.com 1.10,2013-09-13 14:19:00,
2013-09-13 10:34:00,67.9,62.0,29.93,WSW,252,2.0,6.0,81,0.00,,,0.00,weatherlink.com 1.10,2013-09-13 14:34:00,
2013-09-13 10:49:00,68.4,61.0,29.92,WSW,250,0.0,10.0,77,0.00,,,0.00,weatherlink.com 1.10,2013-09-13 14:49:00,
2013-09-13 11:04:00,68.9,61.0,29.92,WNW,288,2.0,7.0,76,0.00,,,0.00,weatherlink.com 1.10,2013-09-13 15:04:00,
2013-09-13 11:19:00,69.0,60.0,29.92,West,279,2.0,8.0,74,0.00,,,0.00,weatherlink.com 1.10,2013-09-13 15:19:00,
2013-09-13 11:34:00,69.4,61.0,29.92,West,281,0.0,9.0,75,0.00,,,0.00,weatherlink.com 1.10,2013-09-13 15:34:00,
2013-09-13 11:49:00,69.6,60.0,29.92,WSW,242,5.0,11.0,71,0.00,,,0.00,weatherlink.com 1.10,2013-09-13 15:49:00,
2013-09-13 12:04:00,70.1,60.0,29.92,West,266,4.0,11.0,71,0.00,,,0.00,weatherlink.com 1.10,2013-09-13 16:04:00,
2013-09-13 12:19:00,70.1,59.0,29.92,WNW,290,2.0,10.0,69,0.00,,,0.00,weatherlink.com 1.10,2013-09-13 16:19:00,
2013-09-13 12:34:00,70.4,58.0,29.92,WNW,298,0.0,9.0,65,0.00,,,0.00,weatherlink.com 1.10,2013-09-13 16:34:00,
2013-09-13 12:49:00,70.9,57.0,29.92,WSW,248,10.0,12.0,61,0.00,,,0.00,weatherlink.com 1.10,2013-09-13 16:49:00,
2013-09-13 13:04:00,71.7,61.0,29.92,WNW,292,1.0,7.0,69,0.00,,,0.00,weatherlink.com 1.10,2013-09-13 17:04:00,
2013-09-13 13:19:00,71.5,59.0,29.92,NNW,336,4.0,7.0,64,0.00,,,0.00,weatherlink.com 1.10,2013-09-13 17:19:00,
2013-09-13 13:34:00,71.4,58.0,29.92,West,275,6.0,12.0,62,0.00,,,0.00,weatherlink.com 1.10,2013-09-13 17:34:00,
2013-09-13 13:49:00,71.8,56.0,29.92,WNW,285,0.0,12.0,58,0.00,,,0.00,weatherlink.com 1.10,2013-09-13 17:49:00,
2013-09-13 14:04:00,72.2,59.0,29.91,NE,40,1.0,9.0,63,0.00,,,0.00,weatherlink.com 1.10,2013-09-13 18:04:00,
2013-09-13 14:19:00,71.7,58.0,29.91,WNW,290,0.0,9.0,63,0.00,,,0.00,weatherlink.com 1.10,2013-09-13 18:19:00,
2013-09-13 14:34:00,71.8,59.0,29.91,West,261,0.0,6.0,64,0.00,,,0.00,weatherlink.com 1.10,2013-09-13 18:34:00,
2013-09-13 14:49:00,71.5,59.0,29.90,WNW,291,6.0,7.0,65,0.00,,,0.00,weatherlink.com 1.10,2013-09-13 18:49:00,
2013-09-13 15:04:00,71.8,53.0,29.89,West,271,4.0,13.0,52,0.00,,,0.00,weatherlink.com 1.10,2013-09-13 19:04:00,
2013-09-13 15:19:00,72.1,57.0,29.90,WNW,296,2.0,6.0,59,0.00,,,0.00,weatherlink.com 1.10,2013-09-13 19:19:00,
2013-09-13 15:34:00,71.8,53.0,29.89,WSW,250,6.0,13.0,52,0.00,,,0.00,weatherlink.com 1.10,2013-09-13 19:34:00,
2013-09-13 15:49:00,71.5,56.0,29.89,SW,221,3.0,9.0,58,0.00,,,0.00,weatherlink.com 1.10,2013-09-13 19:49:00,
2013-09-13 16:04:00,71.2,56.0,29.89,West,261,1.0,12.0,60,0.00,,,0.00,weatherlink.com 1.10,2013-09-13 20:04:00,
2013-09-13 16:19:00,70.8,56.0,29.90,West,266,9.0,11.0,59,0.00,,,0.00,weatherlink.com 1.10,2013-09-13 20:19:00,
2013-09-13 16:34:00,70.5,56.0,29.90,West,274,1.0,6.0,60,0.00,,,0.00,weatherlink.com 1.10,2013-09-13 20:34:00,
2013-09-13 16:49:00,69.7,55.0,29.90,West,269,3.0,10.0,60,0.00,,,0.00,weatherlink.com 1.10,2013-09-13 20:49:00,
2013-09-13 17:04:00,69.6,54.0,29.90,West,278,5.0,9.0,58,0.00,,,0.00,weatherlink.com 1.10,2013-09-13 21:04:00,
2013-09-13 17:19:00,69.3,53.0,29.90,WSW,258,5.0,10.0,57,0.00,,,0.00,weatherlink.com 1.10,2013-09-13 21:19:00,
2013-09-13 17:34:00,69.3,53.0,29.90,West,268,2.0,16.0,57,0.00,,,0.00,weatherlink.com 1.10,2013-09-13 21:34:00,
2013-09-13 17:49:00,68.8,52.0,29.90,WNW,289,3.0,9.0,55,0.00,,,0.00,weatherlink.com 1.10,2013-09-13 21:49:00,
2013-09-13 18:04:00,68.4,54.0,29.90,West,274,5.0,8.0,60,0.00,,,0.00,weatherlink.com 1.10,2013-09-13 22:04:00,
2013-09-13 18:19:00,67.9,54.0,29.91,West,262,7.0,12.0,61,0.00,,,0.00,weatherlink.com 1.10,2013-09-13 22:19:00,
2013-09-13 18:34:00,67.4,51.0,29.91,West,265,4.0,9.0,55,0.00,,,0.00,weatherlink.com 1.10,2013-09-13 22:34:00,
2013-09-13 18:49:00,67.3,51.0,29.91,NNE,19,1.0,12.0,56,0.00,,,0.00,weatherlink.com 1.10,2013-09-13 22:49:00,
2013-09-13 19:04:00,66.8,51.0,29.92,WSW,253,2.0,11.0,58,0.00,,,0.00,weatherlink.com 1.10,2013-09-13 23:04:00,
2013-09-13 19:19:00,66.3,51.0,29.93,SW,229,1.0,5.0,58,0.00,,,0.00,weatherlink.com 1.10,2013-09-13 23:19:00,
2013-09-13 19:34:00,65.7,51.0,29.93,WSW,254,0.0,4.0,60,0.00,,,0.00,weatherlink.com 1.10,2013-09-13 23:34:00,
2013-09-13 19:49:00,64.9,51.0,29.93,WSW,253,2.0,8.0,61,0.00,,,0.00,weatherlink.com 1.10,2013-09-13 23:49:00,
2013-09-13 20:04:00,64.4,51.0,29.93,SSE,166,4.0,10.0,62,0.00,,,0.00,weatherlink.com 1.10,2013-09-14 00:04:00,
2013-09-13 20:19:00,63.9,52.0,29.93,SE,140,0.0,5.0,65,0.00,,,0.00,weatherlink.com 1.10,2013-09-14 00:19:00,
2013-09-13 20:34:00,63.6,51.0,29.93,WSW,258,0.0,5.0,64,0.00,,,0.00,weatherlink.com 1.10,2013-09-14 00:34:00,
2013-09-13 20:49:00,63.3,51.0,29.94,WSW,244,0.0,4.0,64,0.00,,,0.00,weatherlink.com 1.10,2013-09-14 00:49:00,
2013-09-13 21:04:00,62.7,50.0,29.95,WSW,244,1.0,5.0,64,0.00,,,0.00,weatherlink.com 1.10,2013-09-14 01:04:00,
2013-09-13 21:19:00,62.8,50.0,29.95,SSE,150,1.0,8.0,63,0.00,,,0.00,weatherlink.com 1.10,2013-09-14 01:19:00,
2013-09-13 21:34:00,62.4,49.0,29.95,West,261,1.0,7.0,63,0.00,,,0.00,weatherlink.com 1.10,2013-09-14 01:34:00,
2013-09-13 21:50:00,62.0,50.0,29.96,West,260,1.0,7.0,64,0.00,,,0.00,weatherlink.com 1.10,2013-09-14 01:50:00,
2013-09-13 22:05:00,61.9,49.0,29.96,SW,218,1.0,3.0,63,0.00,,,0.00,weatherlink.com 1.10,2013-09-14 02:05:00,
2013-09-13 22:20:00,60.9,50.0,29.96,SSW,198,0.0,3.0,67,0.00,,,0.00,weatherlink.com 1.10,2013-09-14 02:20:00,
2013-09-13 22:35:00,60.3,50.0,29.96,SW,222,0.0,3.0,68,0.00,,,0.00,weatherlink.com 1.10,2013-09-14 02:35:00,
2013-09-13 22:50:00,59.4,50.0,29.97,SE,144,0.0,6.0,71,0.00,,,0.00,weatherlink.com 1.10,2013-09-14 02:50:00,
2013-09-13 23:05:00,58.7,50.0,29.97,SE,140,2.0,4.0,74,0.00,,,0.00,weatherlink.com 1.10,2013-09-14 03:05:00,
2013-09-13 23:20:00,58.2,50.0,29.97,SSE,148,0.0,3.0,73,0.00,,,0.00,weatherlink.com 1.10,2013-09-14 03:20:00,
2013-09-13 23:35:00,58.5,51.0,29.97,SSW,207,0.0,4.0,75,0.00,,,0.00,weatherlink.com 1.10,2013-09-14 03:35:00,
2013-09-13 23:50:00,58.1,50.0,29.98,SSW,200,1.0,3.0,74,0.00,,,0.00,weatherlink.com 1.10,2013-09-14 03:50:00,